User: anonymous   Login
Location: Buckeye Ditch
(40.9104°N, 122.9517°W)
Time: 05:16:32
(UTC+00:00)
Language:

Cosmos 1470 Rocket - Orbit

View from above orbital plane
View from above orbital plane
View from above satellite
View from above satellite

Ground track
Ground track

The orbit data is extracted from the following two-line orbital elements,

1 14148U 83061B   24164.89124823  .00000661  00000-0  75369-4 0  9997
2 14148  82.5193  37.7509 0020741 191.6728 168.4009 14.84490455192179
Epoch (UTC): 12 June 2024 21:23:23
Eccentricity: 0.0020741
inclination: 82.5193°
perigee height: 600 km
apogee height: 629 km
right ascension of ascending node: 37.7509°
argument of perigee: 191.6728°
revolutions per day: 14.84490455
mean anomaly at epoch: 168.4009°
orbit number at epoch: 19217

The dashed part of the orbit path shows where the satellite is in the earth's shadow,  

DLR